Location: Tucson
(32.2217°N, 110.9265°W)
Time: 16:54:09
(UTC-07:00)

Transit 2A Rocket - Pass Details

Date: 14 August 2022
Orbit: 593 x 908 km, 66.7° (Epoch: 26 September)

Event Time Altitude Azimuth Distance (km) Brightness Sun altitude
Rises 02:19:30 0° 354° (N) 2,878 8.6 -36.4°
Reaches altitude 10° 02:22:33 10° 17° (NNE) 2,009 7.9 -36.0°
Maximum altitude 02:25:18 16° 55° (NE) 1,695 7.4 -35.7°
Drops below altitude 10° 02:28:10 10° 93° (E) 2,098 7.6 -35.4°
Enters shadow 02:28:33 - 97° (E) 2,194 7.7 -35.3°
